Pittsburg, KS

2:26 AM CDT on May 24, 2017 (GMT -0500)
Atkinson Municipal

Weather History for KPTS - November, 2012

Change the Weather History Date:

Saturday, November 3, 2012

  Actual Average (KJLN) Record (KJLN)
Temperature  
Mean Temperature 54 °F -  
Max Temperature 70 °F 59 °F 83 °F (1978)
Min Temperature 38 °F 40 °F 13 °F (1991)
Degree Days  
Heating Degree Days 11    
Growing Degree Days 4 (Base 50)    
Moisture  
Dew Point 38 °F    
Average Humidity 62    
Maximum Humidity 100    
Minimum Humidity 39    
Precipitation  
Precipitation 0.00 in - - ()
Sea Level Pressure  
Sea Level Pressure 30.08 in    
Wind  
Wind Speed 7 mph (NNW)    
Max Wind Speed 14 mph    
Max Gust Speed 21 mph    
Visibility 10 miles    
Events      
Averages and records for this station are not official NWS values.
T = Trace of Precipitation, MM = Missing Value Source: NWS Daily Summary

Daily Weather History Graph

Daily Weather History Graph

Search for Another Location

Airport or City:

Trip Planner

Search our weather history database for the weather conditions in past years. The results will help you decide how hot, cold, wet, or windy it might be!

Date:

Astronomy

Nov. 03, 2012 Rise Set
Actual Time 7:46 AM CDT 6:18 PM CDT
Civil Twilight 7:19 AM CDT 6:45 PM CDT
Nautical Twilight 6:48 AM CDT 7:16 PM CDT
Astronomical Twilight 6:17 AM CDT 7:46 PM CDT
Moon 10:01 PM CDT (11/3) 11:49 AM CDT (11/3)
Length of Visible Light 11h 26m
Length of Day
10h 31m
Waning Gibbous, 80% of the Moon is Illuminated
Nov 3
Waning Gibbous
Nov 6
Last Quarter
Nov 13
New
Nov 20
First Quarter
Nov 28
Full

Hourly Weather History & Observations

Time (CDT) Temp. Windchill Dew Point Humidity Pressure Visibility Wind Dir Wind Speed Gust Speed Precip Events Conditions
12:15 AM 70.3 °F - 52.3 °F 53% 29.84 in 10.0 mi SSW 11.5 mph 17.3 mph N/A   Clear
12:35 AM 70.9 °F - 52.5 °F 52% 29.84 in 10.0 mi SSW 10.4 mph 18.4 mph N/A   Clear
12:55 AM 69.1 °F - 51.3 °F 53% 29.85 in 10.0 mi SW 9.2 mph - N/A   Clear
1:15 AM 69.4 °F - 51.1 °F 52% 29.87 in 10.0 mi WSW 6.9 mph - N/A   Clear
1:35 AM 66.9 °F - 50.2 °F 55% 29.87 in 10.0 mi West 3.5 mph - N/A   Clear
1:55 AM 62.2 °F - 49.1 °F 62% 29.89 in 10.0 mi NNW 9.2 mph - N/A   Clear
2:15 AM 54.9 °F - 45.9 °F 72% 29.90 in 10.0 mi North 3.5 mph - N/A   Clear
2:35 AM 52.3 °F - 43.5 °F 72% 29.91 in 10.0 mi NNW 5.8 mph - N/A   Clear
2:55 AM 50.9 °F - 41.5 °F 70% 29.92 in 10.0 mi NNW 6.9 mph - N/A   Clear
3:15 AM 50.9 °F - 40.1 °F 67% 29.94 in 10.0 mi NNW 8.1 mph - N/A   Clear
3:35 AM 50.9 °F - 39.2 °F 64% 29.94 in 10.0 mi NNW 8.1 mph - N/A   Clear
3:55 AM 50.9 °F - 39.0 °F 64% 29.96 in 10.0 mi NNW 8.1 mph - N/A   Clear
4:15 AM 49.8 °F - 38.3 °F 65% 29.97 in 10.0 mi NNW 6.9 mph - N/A   Clear
4:35 AM 48.2 °F - 36.9 °F 65% 29.97 in 10.0 mi NNW 6.9 mph - N/A   Clear
4:55 AM 48.2 °F - 37.6 °F 67% 29.98 in 10.0 mi NNW 8.1 mph - N/A   Clear
5:15 AM 47.3 °F - 37.2 °F 68% 30.00 in 10.0 mi NNW 8.1 mph - N/A   Clear
5:35 AM 45.5 °F 42.5 °F 36.3 °F 70% 30.01 in 10.0 mi NNW 5.8 mph - N/A   Clear
5:55 AM 45.1 °F 40.8 °F 36.1 °F 71% 30.02 in 10.0 mi NNW 8.1 mph - N/A   Clear
6:15 AM 44.2 °F 40.3 °F 35.6 °F 72% 30.03 in 10.0 mi NNW 6.9 mph - N/A   Clear
6:35 AM 43.5 °F 40.1 °F 35.4 °F 73% 30.04 in 10.0 mi NNW 5.8 mph - N/A   Clear
6:55 AM 43.0 °F 39.5 °F 35.4 °F 75% 30.04 in 10.0 mi NNW 5.8 mph - N/A   Clear
7:15 AM 43.0 °F 40.3 °F 35.6 °F 75% 30.05 in 10.0 mi NNW 4.6 mph - N/A   Clear
7:35 AM 42.3 °F 38.6 °F 35.1 °F 76% 30.06 in 10.0 mi NNW 5.8 mph - N/A   Clear
7:55 AM 41.9 °F 39.0 °F 34.9 °F 76% 30.07 in 10.0 mi NNW 4.6 mph - N/A   Clear
8:15 AM 41.9 °F 38.2 °F 34.7 °F 76% 30.08 in - NNW 5.8 mph - N/A   Clear
8:35 AM 42.4 °F 38.1 °F 35.1 °F 75% 30.09 in 10.0 mi NNW 6.9 mph - N/A   Clear
8:55 AM 43.0 °F 38.8 °F 35.2 °F 74% 30.10 in 10.0 mi NNW 6.9 mph - N/A   Clear
9:15 AM 43.3 °F 39.2 °F 34.9 °F 72% 30.11 in 10.0 mi NNW 6.9 mph - N/A   Clear
9:35 AM 44.4 °F 40.5 °F 35.2 °F 70% 30.12 in 10.0 mi NNW 6.9 mph - N/A   Clear
9:55 AM 46.8 °F - 36.0 °F 66% 30.12 in - NNW 9.2 mph - N/A   Clear
10:15 AM 48.7 °F - 36.3 °F 62% 30.12 in 10.0 mi North 9.2 mph - N/A   Clear
10:35 AM 50.9 °F - 36.9 °F 59% 30.13 in 10.0 mi North 8.1 mph - N/A   Clear
10:55 AM 50.9 °F - 35.8 °F 56% 30.14 in 10.0 mi North 8.1 mph 16.1 mph N/A   Clear
11:15 AM 51.8 °F - 35.4 °F 54% 30.14 in 10.0 mi North 5.8 mph - N/A   Clear
11:35 AM 53.2 °F - 36.0 °F 52% 30.14 in 10.0 mi NNW 9.2 mph 18.4 mph N/A   Clear
11:55 AM 54.7 °F - 36.5 °F 50% 30.14 in - North 11.5 mph 18.4 mph N/A   Clear
12:15 PM 55.8 °F - 36.9 °F 49% 30.14 in 10.0 mi NNE 13.8 mph 20.7 mph N/A   Clear
12:35 PM 55.8 °F - 36.1 °F 48% 30.14 in 10.0 mi North 9.2 mph 17.3 mph N/A   Clear
12:55 PM 55.8 °F - 35.8 °F 47% 30.14 in 10.0 mi North 8.1 mph - N/A   Clear
1:15 PM 55.9 °F - 35.2 °F 46% 30.13 in - NNE 8.1 mph - N/A   Clear
1:35 PM 57.6 °F - 36.0 °F 44% 30.12 in 10.0 mi North 8.1 mph - N/A   Clear
1:55 PM 58.3 °F - 35.4 °F 42% 30.12 in - NNE 11.5 mph 16.1 mph N/A   Clear
2:15 PM 58.3 °F - 35.4 °F 42% 30.12 in - North 9.2 mph - N/A   Clear
2:35 PM 58.3 °F - 35.2 °F 42% 30.12 in - NNE 11.5 mph 17.3 mph N/A   Clear
2:55 PM 58.3 °F - 35.2 °F 42% 30.12 in - North 8.1 mph - N/A   Clear
3:15 PM 58.6 °F - 35.2 °F 42% 30.12 in 10.0 mi North 10.4 mph - N/A   Clear
3:35 PM 60.3 °F - 36.5 °F 41% 30.12 in 10.0 mi NNE 10.4 mph - N/A   Clear
3:55 PM 60.3 °F - 36.3 °F 41% 30.12 in 10.0 mi North 9.2 mph - N/A   Clear
4:15 PM 60.6 °F - 35.4 °F 39% 30.12 in 10.0 mi North 8.1 mph 18.4 mph N/A   Clear
4:35 PM 58.6 °F - 34.5 °F 40% 30.12 in 10.0 mi North 8.1 mph - N/A   Clear
4:55 PM 58.3 °F - 33.3 °F 39% 30.13 in 10.0 mi North 6.9 mph - N/A   Clear
5:15 PM 58.1 °F - 33.8 °F 40% 30.14 in 10.0 mi North 5.8 mph - N/A   Clear
5:35 PM 56.3 °F - 33.6 °F 42% 30.14 in 10.0 mi NNE 8.1 mph - N/A   Clear
5:55 PM 55.8 °F - 34.9 °F 45% 30.14 in - North 4.6 mph - N/A   Clear
6:15 PM 55.2 °F - 35.8 °F 48% 30.14 in 10.0 mi NNE 3.5 mph - N/A   Clear
6:35 PM 53.1 °F - 35.1 °F 50% 30.14 in - NE 3.5 mph - N/A   Clear
6:55 PM 51.1 °F - 34.7 °F 54% 30.14 in - Calm Calm - N/A   Clear
7:15 PM 50.7 °F - 36.1 °F 57% 30.15 in 10.0 mi Calm Calm - N/A   Clear
7:35 PM 46.8 °F - 35.4 °F 65% 30.16 in 10.0 mi Calm Calm - N/A   Clear
7:55 PM 44.2 °F - 34.9 °F 70% 30.16 in 10.0 mi Calm Calm - N/A   Clear
8:15 PM 43.2 °F - 35.1 °F 73% 30.17 in 10.0 mi Calm Calm - N/A   Clear
8:35 PM 41.7 °F - 35.8 °F 79% 30.17 in 10.0 mi Calm Calm - N/A   Clear
8:55 PM 40.8 °F - 35.6 °F 82% 30.16 in 10.0 mi Calm Calm - N/A   Clear
9:15 PM 40.5 °F - 36.9 °F 87% 30.16 in 10.0 mi Calm Calm - N/A   Clear
9:35 PM 40.5 °F - 37.9 °F 91% 30.17 in 10.0 mi Calm Calm - N/A   Clear
9:55 PM 40.5 °F - 38.7 °F 93% 30.18 in 10.0 mi Calm Calm - N/A   Clear
10:15 PM 40.5 °F - 38.1 °F 91% 30.18 in 5.0 mi Calm Calm - N/A   Clear
10:35 PM 39.9 °F - 38.7 °F 95% 30.18 in 10.0 mi Calm Calm - N/A   Clear
10:55 PM 38.7 °F - 39.0 °F 100% 30.18 in 10.0 mi Calm Calm - N/A   Clear
11:15 PM 38.5 °F - 38.7 °F 100% 30.18 in 10.0 mi Calm Calm - N/A   Clear
11:35 PM - - - N/A% 30.18 in 10.0 mi Calm Calm - N/A   Clear
11:55 PM - - - N/A% 30.19 in 10.0 mi Calm Calm - N/A   Clear